Location: Bazinghen
(50.8246°N, 1.6616°E)
Time: 17:12:13
(UTC+00:00)

MetOp-B - Visible Passes

Search period start: 15 August 2020 00:00
Search period end: 25 August 2020 00:00
Orbit: 819 x 821 km, 98.7° (Epoch: 14 August)

Date Brightness Start Highest point End Pass type
(mag) Time Alt. Az. Time Alt. Az. Time Alt. Az.
15 Aug 4.9 19:42:09 10° SE 19:47:01 37° ENE 19:51:55 10° N visible
15 Aug 5.2 21:22:14 11° SSW 21:27:05 40° W 21:32:09 10° NNW visible
16 Aug 4.6 21:01:21 12° S 21:06:16 58° W 21:11:34 10° NNW visible
17 Aug 4.2 20:40:28 12° SSE 20:45:29 83° WSW 20:50:54 10° NNW visible
17 Aug 6.5 22:23:36 10° WSW 22:26:25 14° W 22:29:15 10° NW visible
18 Aug 4.2 20:19:36 11° SSE 20:24:47 70° ENE 20:30:08 10° NNW visible
18 Aug 6.2 22:01:25 10° SW 22:05:24 21° W 22:09:24 10° NW visible
19 Aug 4.5 19:59:00 10° SE 20:04:09 49° ENE 20:09:18 10° N visible
19 Aug 5.7 21:40:05 11° SSW 21:44:27 30° W 21:49:09 10° NNW visible
20 Aug 4.9 19:38:44 10° SE 19:43:33 35° ENE 19:48:23 10° N visible
20 Aug 5.1 21:19:12 14° SSW 21:23:34 43° W 21:28:41 10° NNW visible
21 Aug 4.5 20:58:20 15° S 21:02:45 62° WSW 21:08:05 10° NNW visible
22 Aug 4.1 20:37:28 15° SSE 20:41:59 88° WSW 20:47:23 10° NNW visible
22 Aug 6.5 22:19:47 10° WSW 22:22:52 15° W 22:25:57 10° NW visible
23 Aug 4.2 20:16:35 13° SSE 20:21:17 66° ENE 20:26:37 10° N visible
23 Aug 6.1 21:57:57 11° SW 22:01:52 22° W 22:05:59 10° NW visible
24 Aug 4.6 19:55:43 11° SE 20:00:39 46° ENE 20:05:46 10° N visible
24 Aug 5.6 21:37:06 14° SSW 21:40:55 32° W 21:45:41 10° NNW visible
